Temperature
14 14 13 13 13 13 13 12 11 10 9 7 6 4 3 2 2 1 1 0 -1 -1 -2 -2 -3 -3 -5 -5 -7 -8 -9 -10 -10 -9 -8 -8 -8 -8 -8 -8 -9 -9 -9
14 13 13 13 13 13 12 12 11 9 8 7 5 4 3 2 1 1 0 -0 -1 -1 -2 -2 -3 -4 -5 -5 -7 -8 -8 -9 -10 -9 -8 -8 -8 -8 -8 -8 -9 -9 -9
13 13 13 13 13 13 12 11 10 9 8 6 5 3 3 1 0 0 -0 -1 -1 -1 -2 -3 -3 -4 -4 -5 -6 -8 -8 -9 -9 -9 -9 -8 -8 -8 -8 -8 -9 -9 -9
13 13 13 12 12 11 11 10 9 8 7 5 4 2 1 0 -0 -1 -1 -1 -2 -2 -2 -3 -3 -4 -4 -5 -6 -7 -8 -8 -9 -9 -9 -8 -8 -8 -8 -8 -9 -9 -9
12 12 11 11 11 10 10 9 8 7 6 5 3 1 -0 -1 -1 -1 -2 -2 -2 -2 -3 -3 -3 -4 -4 -5 -6 -7 -7 -8 -8 -8 -8 -8 -8 -8 -8 -8 -9 -9 -9
11 11 10 10 10 10 9 8 8 7 5 4 3 1 -1 -1 -2 -3 -3 -3 -3 -3 -3 -3 -3 -4 -4 -5 -6 -7 -7 -8 -8 -8 -8 -8 -8 -8 -9 -9 -9 -10 -10
9 9 9 9 9 9 8 8 7 6 5 3 2 0 -1 -2 -3 -4 -4 -4 -3 -3 -3 -3 -4 -4 -5 -6 -6 -7 -7 -8 -8 -8 -8 -8 -9 -9 -9 -10 -10 -10 -10
9 9 9 8 8 8 7 7 6 5 4 3 2 0 -1 -2 -4 -4 -4 -5 -4 -4 -4 -4 -4 -4 -5 -6 -7 -7 -7 -8 -8 -8 -8 -9 -9 -9 -10 -10 -10 -11 -11
7 7 7 7 7 7 6 6 5 4 3 2 0 -1 -2 -3 -4 -5 -5 -5 -5 -4 -4 -4 -4 -5 -5 -7 -8 -8 -8 -8 -8 -8 -9 -9 -9 -9 -10 -10 -11 -11 -11
6 6 6 6 6 5 5 5 4 3 2 1 -1 -2 -3 -4 -4 -5 -5 -5 -5 -5 -5 -5 -5 -5 -5 -7 -7 -8 -8 -8 -8 -9 -9 -9 -10 -10 -11 -11 -12 -12 -12
5 5 5 5 4 4 4 4 3 2 1 -0 -2 -3 -4 -5 -5 -5 -5 -5 -5 -5 -5 -5 -5 -5 -6 -7 -7 -8 -8 -8 -8 -9 -9 -10 -10 -11 -11 -12 -12 -12 -13
4 4 4 4 4 4 3 3 2 1 -0 -2 -3 -4 -5 -5 -5 -5 -6 -5 -5 -5 -5 -5 -5 -5 -6 -7 -8 -8 -8 -8 -9 -9 -10 -10 -10 -11 -11 -11 -12 -12 -12
3 3 3 3 3 3 2 2 1 0 -1 -2 -4 -5 -6 -6 -6 -5 -5 -5 -5 -5 -5 -5 -5 -6 -7 -7 -8 -8 -8 -9 -9 -10 -10 -10 -11 -11 -11 -12 -12 -12 -12
1 2 2 2 2 2 2 1 0 -0 -2 -3 -4 -5 -6 -7 -6 -5 -5 -5 -5 -5 -6 -6 -6 -7 -7 -7 -8 -8 -8 -9 -10 -10 -10 -11 -11 -11 -12 -12 -12 -12 -12
1 1 0 0 0 0 0 0 -0 -1 -2 -3 -4 -6 -6 -7 -6 -5 -5 -5 -5 -5 -6 -6 -6 -7 -7 -8 -8 -8 -9 -9 -10 -10 -11 -11 -11 -11 -12 -12 -12 -12 -12
-0 -0 -0 -0 -0 -0 -1 -1 -0 -1 -2 -3 -5 -6 -7 -7 -7 -6 -6 -6 -5 -5 -6 -6 -6 -7 -7 -8 -8 -9 -9 -9 -10 -10 -11 -11 -11 -12 -12 -12 -12 -12 -12
-1 -1 -1 -1 -1 -1 -1 -2 -2 -2 -3 -4 -5 -6 -7 -7 -7 -7 -6 -6 -6 -6 -7 -7 -7 -7 -7 -8 -8 -9 -9 -9 -9 -10 -11 -11 -11 -12 -12 -12 -12 -12 -12
-1 -1 -1 -2 -2 -2 -2 -2 -3 -3 -4 -4 -5 -6 -6 -7 -7 -6 -6 -6 -7 -7 -7 -7 -7 -7 -7 -8 -8 -9 -9 -9 -10 -10 -11 -11 -11 -12 -12 -12 -12 -12 -12
-1 -1 -2 -2 -2 -2 -2 -3 -3 -4 -4 -5 -6 -6 -6 -7 -7 -6 -6 -6 -6 -6 -6 -7 -7 -7 -7 -8 -8 -9 -9 -9 -10 -10 -10 -11 -11 -12 -12 -12 -12 -12 -12
-2 -2 -2 -2 -2 -2 -3 -3 -3 -4 -5 -5 -6 -6 -6 -7 -7 -6 -6 -6 -6 -6 -6 -6 -7 -7 -7 -8 -8 -9 -9 -9 -10 -10 -10 -11 -11 -11 -12 -12 -12 -12 -12
-2 -2 -2 -2 -2 -2 -3 -3 -4 -4 -5 -6 -6 -7 -7 -7 -7 -6 -6 -6 -6 -6 -6 -6 -7 -7 -7 -8 -8 -9 -9 -9 -10 -10 -10 -11 -11 -11 -12 -12 -12 -12 -12
-2 -2 -2 -2 -2 -3 -3 -3 -4 -5 -5 -6 -6 -7 -7 -7 -7 -6 -6 -6 -6 -6 -6 -6 -7 -7 -7 -8 -8 -9 -9 -9 -10 -10 -10 -11 -11 -11 -11 -12 -12 -12 -12
-2 -2 -2 -2 -3 -3 -3 -4 -4 -5 -6 -6 -7 -7 -7 -7 -7 -7 -6 -6 -6 -6 -6 -6 -7 -7 -7 -8 -8 -9 -9 -9 -10 -10 -10 -10 -11 -11 -11 -12 -12 -12 -12
-2 -2 -2 -3 -3 -3 -4 -4 -5 -5 -6 -6 -7 -7 -8 -8 -7 -7 -6 -6 -6 -6 -6 -7 -7 -7 -7 -8 -8 -9 -9 -9 -10 -10 -10 -10 -11 -11 -11 -11 -12 -12 -11
-2 -2 -3 -3 -3 -4 -4 -5 -5 -6 -6 -7 -7 -8 -8 -8 -7 -7 -6 -6 -6 -6 -6 -7 -7 -7 -7 -8 -8 -9 -9 -9 -10 -10 -10 -10 -10 -11 -11 -11 -12 -11 -11
-3 -3 -3 -3 -4 -4 -4 -5 -5 -6 -6 -7 -7 -8 -8 -7 -7 -7 -6 -6 -6 -6 -6 -7 -7 -7 -8 -8 -8 -9 -9 -9 -10 -10 -10 -10 -10 -10 -11 -11 -11 -11 -11
Wind_Speed
13 15 17 17 18 19 19 21 20 19 20 20 20 21 22 22 22 21 20 19 19 18 17 17 18 17 14 14 14 14 15 16 19 21 20 20 23 23 21 24 25 26 26
10 12 15 16 16 18 19 19 19 20 19 20 20 21 22 22 23 23 22 21 20 20 19 18 19 15 18 16 15 17 16 17 18 23 22 20 23 23 23 23 21 22 23
9 11 13 14 16 18 18 18 18 19 19 20 21 22 22 22 22 23 22 21 20 20 19 18 18 17 18 16 17 16 15 16 17 19 22 20 20 20 22 22 23 20 22
8 10 13 14 15 16 16 16 17 18 19 20 20 21 20 19 20 21 20 19 19 19 18 18 18 18 19 18 16 18 17 18 18 19 20 20 19 20 18 18 19 18 19
9 11 13 13 13 14 14 15 16 17 18 19 20 20 20 18 18 20 19 19 19 18 18 18 19 21 22 19 16 16 16 16 16 17 18 19 19 18 17 17 19 20 20
11 12 12 11 12 13 14 14 15 17 17 18 19 20 21 18 26 31 23 19 18 18 18 17 18 21 24 27 28 27 24 19 18 18 18 20 21 21 19 18 19 20 21
12 12 11 11 12 13 13 14 15 16 17 18 19 20 22 23 29 32 32 20 18 18 18 16 14 15 20 16 21 25 24 27 27 21 22 22 23 21 21 23 21 22 22
12 12 11 10 12 12 13 14 15 14 15 16 18 20 21 23 29 31 31 24 19 18 18 17 17 16 15 15 14 17 18 18 20 17 17 20 20 20 20 21 22 22 23
13 13 11 10 11 12 13 14 13 13 15 15 16 19 20 21 27 30 29 17 17 19 17 17 17 17 20 20 17 18 19 16 19 23 25 25 28 29 24 17 18 18 19
14 14 14 13 12 13 14 14 12 13 14 14 15 17 19 19 23 29 30 16 16 15 15 15 20 20 20 20 16 16 18 16 14 15 18 19 19 20 23 16 15 15 17
15 15 15 14 13 14 13 12 11 11 12 14 15 15 17 19 21 27 29 17 15 14 12 12 12 18 20 20 19 15 17 16 15 15 14 14 14 13 13 12 13 13 15
16 16 15 14 13 11 12 12 11 11 12 13 13 14 13 15 19 22 28 27 20 14 12 10 11 16 17 18 16 16 19 17 12 12 13 13 13 13 13 13 14 15 16
16 16 15 15 13 11 11 11 10 10 10 10 11 11 11 11 14 23 25 27 28 17 12 14 15 15 15 13 15 16 14 11 10 11 12 13 13 13 14 13 14 14 16
16 16 14 14 13 12 9 9 9 9 10 10 11 11 11 11 11 12 14 16 21 18 14 14 16 15 12 12 12 11 8 9 10 11 12 13 13 13 13 12 13 12 12
16 15 14 12 13 12 10 9 11 11 12 11 11 10 10 11 13 17 14 12 12 12 10 8 7 7 8 8 8 8 8 8 9 9 11 12 12 13 13 12 12 12 12
14 13 12 11 11 10 11 11 13 15 18 19 19 16 12 15 15 18 20 19 18 16 12 8 9 9 8 8 7 7 7 8 8 9 10 11 12 12 13 12 12 12 12
14 14 12 11 11 11 10 11 11 10 14 18 20 21 20 17 17 17 19 19 19 18 12 9 9 8 8 7 7 7 8 8 8 9 10 11 11 12 12 12 12 12 12
14 13 12 11 11 11 11 10 10 10 9 8 11 17 20 20 19 17 18 16 13 13 10 9 8 8 7 7 7 7 7 7 8 8 9 10 11 11 12 12 12 13 13
13 11 11 11 11 11 10 10 10 10 9 9 7 9 14 16 18 18 17 11 10 10 10 9 8 7 6 6 6 6 7 8 8 9 9 10 10 11 12 12 13 16 14
12 15 15 12 11 11 10 9 9 9 9 8 8 7 7 9 9 11 12 10 10 9 8 8 7 7 6 6 6 6 7 7 8 8 9 9 10 11 12 14 13 13 12
12 13 16 13 11 10 10 10 9 8 8 8 8 8 9 8 9 10 10 10 9 9 8 7 6 6 6 5 5 6 7 8 8 8 9 10 10 11 12 12 13 12 12
11 11 11 11 11 10 10 9 9 9 9 9 7 7 12 9 7 7 8 8 8 7 7 6 6 6 5 5 5 6 7 8 8 9 10 10 10 11 12 12 12 12 12
12 12 12 11 10 12 12 9 8 8 8 8 7 6 7 7 7 7 7 7 6 6 6 6 5 5 5 5 5 6 7 8 8 10 10 11 11 11 12 13 14 15 13
12 12 13 12 11 10 10 9 8 7 7 7 7 7 7 6 6 7 6 6 6 6 6 5 5 6 6 5 5 6 7 8 10 9 10 10 11 12 12 12 13 15 14
12 12 12 11 10 9 9 8 7 7 7 7 7 6 6 6 6 6 6 6 6 6 6 6 5 5 6 6 6 7 10 13 12 9 8 9 11 12 12 13 13 14 13
12 12 11 10 9 9 8 7 6 6 6 6 6 6 6 6 6 6 6 6 6 6 6 5 5 5 4 5 7 9 12 12 11 11 8 8 10 11 13 12 15 13 14
Wind_Direction
235 232 231 233 232 232 233 235 234 232 228 225 222 218 215 211 207 207 209 209 214 219 221 226 233 237 242 246 249 251 253 255 265 276 281 284 286 285 283 280 278 277 276
246 240 238 237 235 235 236 237 235 234 230 226 223 220 218 214 209 207 209 209 212 218 222 225 234 235 240 246 249 252 254 256 262 273 280 284 284 285 284 282 281 278 276
254 246 245 242 238 238 239 238 235 233 231 226 223 221 218 214 210 209 209 210 213 218 222 225 232 235 242 245 249 253 256 259 261 268 276 281 283 284 285 283 281 279 278
262 252 250 247 246 246 244 241 238 234 232 229 226 225 221 216 212 209 208 210 213 219 223 227 232 234 240 246 251 254 257 261 264 267 274 280 283 286 285 286 286 285 282
272 261 259 260 257 254 250 246 241 237 234 231 229 227 223 217 214 209 206 208 212 218 224 229 233 236 239 243 246 252 256 260 265 271 277 283 286 290 290 291 291 291 286
282 274 272 267 261 256 253 248 242 238 235 232 230 228 225 221 219 214 207 209 213 218 225 230 235 241 246 249 254 258 260 265 272 277 280 283 287 291 294 293 291 290 289
289 282 277 271 266 261 256 250 245 241 237 233 231 229 230 227 223 219 213 209 214 218 223 230 234 238 243 246 256 263 269 270 271 273 277 282 288 292 293 291 288 286 285
295 290 284 275 271 270 263 256 251 245 239 235 232 230 231 230 225 222 218 214 218 222 225 229 236 242 242 246 252 259 262 264 265 267 270 276 280 284 285 287 290 289 285
299 298 294 280 275 273 268 262 256 249 244 240 236 233 233 232 226 223 219 217 221 225 228 231 237 245 250 252 256 262 268 269 271 273 274 278 283 289 291 292 290 289 288
307 305 302 295 285 279 274 271 262 252 247 243 239 235 234 233 227 222 220 217 220 224 228 231 236 242 249 253 256 264 271 278 282 283 283 284 285 286 287 282 282 283 285
308 305 301 297 291 286 282 274 265 255 249 244 242 238 234 233 230 224 220 213 217 221 226 229 231 239 247 254 259 265 273 283 288 288 288 287 287 284 282 279 274 273 277
308 304 301 301 297 289 283 277 266 256 250 247 244 242 236 232 229 226 223 219 215 220 225 229 233 239 247 257 264 270 279 288 288 288 289 291 293 294 293 290 282 275 269
306 303 303 303 299 291 283 277 268 255 248 247 243 242 238 230 226 224 224 224 221 219 226 230 236 244 252 262 267 274 281 283 282 284 288 292 296 296 295 292 288 280 274
303 304 304 303 300 296 283 271 263 254 248 245 242 241 238 231 223 217 217 224 225 226 230 233 238 246 252 260 266 271 270 271 277 282 288 293 297 299 298 298 298 297 293
303 302 302 300 298 297 286 271 263 255 249 245 245 242 239 235 226 214 208 209 208 211 210 216 223 232 242 248 254 261 266 271 276 280 288 295 300 302 302 302 299 297 294
301 301 301 301 299 294 292 287 263 256 259 252 248 245 244 244 240 225 216 213 208 204 202 212 222 231 240 249 257 264 269 273 279 285 289 294 300 303 304 304 301 298 297
297 298 298 296 296 295 293 290 292 280 258 254 251 246 242 241 238 230 216 209 207 203 207 216 224 231 238 245 254 263 272 279 284 285 288 294 299 302 304 305 304 302 300
297 295 293 293 293 292 290 286 284 285 284 273 255 247 243 238 233 224 210 200 203 205 211 219 225 229 235 242 252 262 273 281 282 286 291 295 299 303 305 306 305 304 303
297 294 293 292 290 288 286 283 278 273 270 271 266 255 243 234 224 215 202 199 198 202 207 216 222 226 231 239 250 261 271 278 284 289 292 297 301 304 305 306 305 304 304
293 289 292 291 289 287 283 278 273 268 265 260 256 250 233 217 209 201 199 197 198 201 205 212 217 222 227 235 248 259 271 279 286 288 294 300 303 305 306 306 306 305 304
293 292 291 289 285 283 280 276 270 265 260 256 251 242 227 219 209 197 193 195 198 200 202 207 212 216 222 232 245 258 270 280 288 293 297 301 305 307 307 306 306 305 304
292 289 288 287 286 284 281 272 265 259 255 251 248 239 232 225 214 199 192 192 194 195 195 199 208 214 219 230 245 261 274 283 292 297 300 304 307 309 309 308 309 309 308
290 290 290 289 287 287 285 272 261 254 248 242 234 227 224 217 208 197 187 182 181 184 186 192 203 211 218 230 244 258 271 282 291 297 304 308 310 311 312 312 312 312 311
291 292 292 291 289 286 282 274 263 251 240 232 224 219 213 208 200 188 180 174 174 178 182 190 204 212 219 239 256 264 273 283 292 297 303 304 308 311 313 314 314 314 314
297 296 295 294 293 289 282 273 261 245 230 222 217 210 203 197 189 179 174 170 172 178 183 189 199 210 223 245 265 277 287 295 300 311 310 307 309 312 316 316 318 318 318
298 296 294 292 290 285 278 269 255 237 223 213 207 201 194 188 183 176 169 168 171 175 180 189 198 207 229 255 271 284 295 304 309 318 321 314 317 319 324 322 323 323 322
Height
1431 1430 1429 1428 1427 1426 1425 1424 1423 1422 1421 1420 1419 1419 1420 1422 1425 1426 1428 1431 1433 1435 1436 1437 1437 1437 1436 1434 1433 1430 1427 1424 1416 1408 1407 1404 1401 1396 1392 1387 1382 1377 1371
1428 1425 1423 1422 1420 1418 1417 1416 1414 1412 1410 1409 1408 1408 1408 1410 1412 1414 1417 1420 1422 1425 1426 1427 1427 1427 1426 1425 1423 1420 1417 1415 1410 1402 1396 1394 1391 1387 1381 1376 1371 1366 1361
1425 1422 1419 1416 1414 1411 1409 1407 1404 1402 1400 1398 1397 1396 1396 1397 1399 1402 1406 1409 1411 1414 1416 1417 1418 1418 1416 1415 1413 1411 1408 1405 1402 1396 1388 1385 1380 1377 1371 1365 1360 1355 1349
1421 1418 1414 1411 1408 1404 1401 1398 1395 1392 1390 1388 1386 1385 1385 1386 1388 1391 1394 1397 1400 1404 1406 1407 1408 1407 1406 1406 1404 1401 1399 1396 1393 1388 1381 1375 1371 1367 1362 1355 1349 1344 1339
1416 1412 1408 1404 1400 1396 1392 1389 1386 1383 1380 1378 1376 1375 1374 1375 1375 1379 1382 1386 1390 1393 1396 1397 1398 1398 1397 1396 1394 1392 1390 1387 1384 1379 1373 1368 1362 1358 1353 1348 1340 1333 1327
1410 1406 1401 1397 1392 1388 1384 1380 1376 1373 1370 1368 1365 1364 1363 1363 1364 1369 1372 1376 1380 1383 1385 1387 1388 1388 1387 1386 1385 1384 1383 1380 1375 1372 1366 1360 1354 1350 1344 1339 1332 1324 1314
1403 1399 1394 1389 1385 1380 1375 1371 1367 1364 1361 1357 1355 1354 1353 1353 1356 1360 1363 1366 1370 1373 1375 1377 1378 1378 1378 1377 1375 1373 1372 1370 1367 1364 1357 1351 1346 1341 1336 1328 1322 1315 1306
1396 1391 1387 1382 1377 1372 1367 1363 1358 1354 1350 1347 1345 1343 1343 1343 1346 1351 1355 1358 1360 1363 1366 1368 1369 1369 1369 1368 1365 1363 1360 1358 1356 1353 1348 1342 1337 1332 1327 1320 1312 1304 1296
1389 1384 1379 1374 1368 1364 1359 1355 1350 1346 1342 1339 1336 1334 1333 1334 1337 1341 1347 1349 1351 1354 1356 1358 1360 1360 1360 1360 1358 1355 1352 1349 1347 1344 1339 1334 1328 1323 1318 1311 1303 1296 1287
1382 1376 1371 1366 1361 1356 1351 1346 1342 1337 1333 1330 1327 1325 1325 1325 1328 1332 1338 1341 1343 1345 1348 1349 1351 1351 1351 1351 1350 1347 1344 1341 1338 1333 1329 1323 1318 1312 1307 1302 1295 1289 1281
1374 1369 1364 1359 1353 1348 1343 1338 1334 1329 1325 1322 1319 1317 1316 1317 1319 1323 1328 1332 1334 1337 1339 1341 1342 1343 1343 1343 1342 1340 1337 1334 1330 1325 1320 1314 1309 1303 1298 1293 1287 1281 1274
1367 1362 1357 1352 1346 1341 1336 1331 1326 1322 1318 1314 1312 1309 1308 1309 1311 1314 1319 1323 1327 1330 1332 1334 1335 1335 1335 1335 1334 1332 1330 1327 1323 1318 1313 1307 1302 1296 1290 1284 1278 1272 1266
1360 1354 1349 1344 1340 1334 1329 1324 1319 1315 1311 1307 1305 1303 1302 1302 1303 1306 1311 1315 1320 1323 1325 1327 1328 1328 1328 1328 1326 1325 1323 1319 1316 1311 1306 1301 1295 1288 1281 1275 1269 1263 1257
1353 1347 1343 1338 1333 1328 1323 1318 1313 1308 1304 1301 1298 1296 1296 1296 1296 1299 1303 1308 1313 1317 1319 1321 1322 1322 1322 1321 1319 1318 1315 1312 1309 1305 1300 1294 1288 1282 1275 1269 1262 1256 1250
1346 1341 1336 1331 1326 1321 1316 1312 1306 1302 1299 1295 1293 1291 1291 1290 1291 1294 1297 1301 1305 1310 1313 1315 1315 1316 1315 1314 1313 1311 1309 1306 1303 1299 1294 1288 1283 1276 1270 1264 1258 1251 1246
1340 1335 1330 1325 1320 1315 1309 1304 1299 1296 1291 1288 1286 1285 1284 1285 1287 1289 1292 1296 1301 1304 1307 1308 1309 1309 1309 1308 1307 1305 1303 1300 1297 1293 1288 1283 1277 1271 1264 1258 1253 1247 1241
1334 1329 1324 1319 1314 1309 1304 1298 1293 1288 1285 1281 1279 1278 1279 1280 1282 1285 1288 1291 1295 1299 1301 1301 1303 1303 1303 1302 1301 1299 1297 1295 1291 1287 1283 1278 1273 1267 1260 1254 1248 1243 1237
1328 1324 1319 1314 1309 1303 1298 1293 1288 1283 1279 1276 1274 1273 1273 1275 1277 1280 1284 1287 1290 1293 1294 1296 1297 1297 1297 1297 1295 1294 1292 1289 1286 1282 1278 1274 1268 1263 1256 1250 1244 1238 1233
1322 1317 1313 1308 1303 1298 1293 1287 1282 1278 1274 1271 1268 1267 1268 1269 1272 1276 1279 1282 1284 1287 1289 1291 1292 1292 1292 1292 1290 1289 1287 1284 1281 1278 1273 1269 1264 1259 1252 1246 1240 1234 1229
1315 1311 1306 1301 1296 1291 1286 1281 1277 1272 1269 1266 1264 1263 1263 1265 1267 1270 1274 1277 1280 1282 1284 1286 1287 1287 1287 1287 1286 1284 1282 1280 1277 1273 1269 1265 1260 1255 1248 1242 1236 1230 1224
1309 1304 1300 1295 1289 1284 1280 1275 1271 1267 1264 1261 1260 1259 1260 1261 1264 1266 1269 1273 1275 1278 1280 1282 1282 1283 1283 1282 1281 1280 1278 1276 1273 1269 1265 1261 1256 1250 1244 1238 1232 1226 1220
1302 1297 1292 1288 1283 1278 1273 1268 1264 1261 1258 1256 1255 1255 1256 1258 1260 1263 1266 1269 1272 1275 1276 1278 1278 1278 1278 1278 1277 1276 1274 1272 1269 1266 1262 1257 1252 1246 1240 1234 1228 1222 1216
1296 1291 1285 1280 1275 1270 1265 1261 1258 1255 1253 1252 1251 1251 1252 1254 1256 1259 1262 1266 1269 1271 1273 1274 1274 1275 1275 1274 1274 1272 1271 1268 1266 1262 1258 1253 1248 1242 1236 1230 1224 1218 1212
1289 1284 1278 1273 1268 1263 1259 1255 1252 1250 1248 1247 1247 1247 1249 1251 1253 1256 1260 1263 1266 1268 1269 1270 1271 1271 1271 1271 1270 1269 1267 1265 1263 1259 1255 1250 1245 1239 1233 1227 1221 1215 1209
1282 1276 1271 1266 1261 1257 1253 1249 1247 1245 1243 1243 1243 1244 1246 1248 1251 1254 1257 1260 1263 1265 1266 1267 1268 1268 1268 1268 1267 1266 1265 1263 1260 1257 1252 1248 1242 1236 1230 1224 1218 1212 1206
1274 1269 1264 1260 1255 1251 1247 1244 1242 1240 1240 1240 1240 1242 1243 1246 1249 1252 1255 1258 1260 1262 1264 1265 1265 1266 1266 1265 1265 1264 1262 1260 1258 1254 1250 1245 1240 1234 1228 1221 1215 1209 1204